Find Starlink 5456

NORAD ID: 55667 Int'l Des: 2023-021 Owner: SPXS Country: US Constellation: starlink operational
LEOCIRCULAR

当前视图

正在加载3D地球...

About Starlink 5456

Starlink 5456 (NORAD 55667) is a starlink constellation satellite (v1.5) launched Feb 17, 2023 by SPXS of US. It operates in LEO, CIRCULAR orbit with a mass of 305.00 kg.

关于 Starlink 5456

正在加载描述...

即将过境

Passes for default location (London). Set your location on the main map for personalized predictions.

高度历史

Loading altitude history...

两行轨道根数

1 55667U 23021AR 26169.60553423 -.00000088 00000-0 43660-6 0 9991
2 55667 69.9990 269.8921 0003219 267.4146 92.6644 14.98331015184396
Epoch: Jun 18, 2026 • Age: 12 hours

当前状态

高度 580.2 km
速度 7.57 km/s
星下点 46.22°N, 124.23°E
发射日期 Feb 17, 2023
运行时间 3.3 years
类型 internet

技术详情

分类 Payload
质量 305.00 kg
干质量 290.00 kg
总质量 305.00 kg
长度 0.20 m
直径 2.80 m
跨度 9.00 m
形状 Box + pan
制造商 SPXS
平台类型 Starlink
阶段状态 In Orbit
所有者/国家 SPXS/US

Most Searched